When you browse on this site, cookies collect data to enhance your experience and personalize the content and advertising you see.
Visit our Privacy Policy to learn more. By continuing to use the site, you agree to this use of cookies and data.
  • In Hungary
  • List of Countries
  • For 7 days
  • Water Temperature
  • Weather Map
  • News
  • Weather Widgets
  • user-avatar
    Login

    Hourly Weather Proselkovichi

    Today, 31 May, Sunday

    Time Temperature Precipitation Wind Pressure Humidity
    00:00 +15°C° 0 mm 7 mps 747 mmHg 67%
    01:00 +13°C° 0 mm 8 mps 747 mmHg 65%
    02:00 +14°C° 0 mm 7 mps 748 mmHg 70%
    03:00 +12°C° 0 mm 7 mps 748 mmHg 69%
    04:00 +11°C° 0 mm 7 mps 748 mmHg 68%
    05:00 +11°C° 0 mm 7 mps 748 mmHg 67%
    06:00 +12°C° 0 mm 7 mps 748 mmHg 65%
    07:00 +13°C° 0 mm 8 mps 748 mmHg 63%
    08:00 +13°C° 0 mm 8 mps 749 mmHg 61%
    09:00 +15°C° 0 mm 8 mps 749 mmHg 58%
    10:00 +16°C° 0 mm 8 mps 749 mmHg 55%
    11:00 +17°C° 0 mm 8 mps 749 mmHg 51%
    12:00 +18°C° 0 mm 8 mps 750 mmHg 50%
    13:00 +18°C° 0 mm 8 mps 750 mmHg 49%
    14:00 +18°C° 0 mm 7 mps 750 mmHg 48%
    15:00 +18°C° 0 mm 7 mps 750 mmHg 50%
    16:00 +17°C° 0 mm 7 mps 750 mmHg 51%
    17:00 +17°C° 0 mm 6 mps 750 mmHg 53%
    18:00 +15°C° 0 mm 6 mps 750 mmHg 55%
    19:00 +14°C° 0 mm 5 mps 751 mmHg 57%
    20:00 +12°C° 0 mm 5 mps 751 mmHg 59%
    21:00 +10°C° 0 mm 5 mps 751 mmHg 59%
    22:00 +9°C° 0 mm 5 mps 752 mmHg 58%
    23:00 +8°C° 0 mm 5 mps 752 mmHg 58%

    Tomorrow, 1 June, Monday

    Time Temperature Precipitation Wind Pressure Humidity
    00:00 +7°C° 0 mm 5 mps 752 mmHg 61%
    01:00 +6°C° 0 mm 4 mps 752 mmHg 64%
    02:00 +6°C° 0 mm 4 mps 753 mmHg 67%
    03:00 +5°C° 0 mm 4 mps 753 mmHg 69%
    04:00 +5°C° 0 mm 4 mps 752 mmHg 71%
    05:00 +5°C° 0 mm 4 mps 752 mmHg 74%
    06:00 +6°C° 0 mm 5 mps 752 mmHg 69%
    07:00 +7°C° 0 mm 6 mps 752 mmHg 64%
    08:00 +9°C° 0 mm 6 mps 753 mmHg 59%
    09:00 +9°C° 0 mm 6 mps 752 mmHg 56%
    10:00 +10°C° 0 mm 6 mps 752 mmHg 54%
    11:00 +11°C° 0 mm 6 mps 752 mmHg 51%
    12:00 +11°C° 0 mm 6 mps 752 mmHg 52%
    13:00 +13°C° 0 mm 6 mps 752 mmHg 53%
    14:00 +13°C° 0 mm 6 mps 751 mmHg 53%
    15:00 +13°C° 0.1 mm 6 mps 751 mmHg 56%
    16:00 +13°C° 0.1 mm 5 mps 751 mmHg 59%
    17:00 +13°C° 0.1 mm 5 mps 751 mmHg 62%
    18:00 +12°C° 0 mm 5 mps 750 mmHg 65%
    19:00 +11°C° 0 mm 4 mps 750 mmHg 68%
    20:00 +10°C° 0 mm 4 mps 750 mmHg 71%
    21:00 +10°C° 0 mm 4 mps 750 mmHg 73%
    22:00 +8°C° 0 mm 4 mps 750 mmHg 74%
    23:00 +7°C° 0 mm 5 mps 750 mmHg 76%

    Day after tomorrow, 2 June, Tuesday

    Time Temperature Precipitation Wind Pressure Humidity
    00:00 +7°C° 0 mm 5 mps 749 mmHg 77%
    01:00 +7°C° 0 mm 5 mps 749 mmHg 77%
    02:00 +7°C° 0 mm 6 mps 748 mmHg 78%
    03:00 +7°C° 0 mm 6 mps 748 mmHg 78%
    04:00 +8°C° 0 mm 6 mps 748 mmHg 77%
    05:00 +8°C° 0 mm 7 mps 748 mmHg 77%
    06:00 +9°C° 0 mm 7 mps 747 mmHg 73%
    07:00 +10°C° 0 mm 7 mps 747 mmHg 68%
    08:00 +11°C° 0 mm 8 mps 747 mmHg 64%
    09:00 +10°C° 0.3 mm 7 mps 747 mmHg 68%
    10:00 +10°C° 0.3 mm 6 mps 747 mmHg 72%
    11:00 +10°C° 0.3 mm 6 mps 747 mmHg 76%
    12:00 +10°C° 0.5 mm 5 mps 747 mmHg 79%
    13:00 +9°C° 0.5 mm 5 mps 747 mmHg 83%
    14:00 +10°C° 0.5 mm 4 mps 747 mmHg 87%
    15:00 +9°C° 0.4 mm 5 mps 747 mmHg 88%
    16:00 +9°C° 0.4 mm 6 mps 746 mmHg 89%
    17:00 +9°C° 0.4 mm 6 mps 746 mmHg 90%
    18:00 +8°C° 0.1 mm 6 mps 746 mmHg 91%
    19:00 +8°C° 0.1 mm 6 mps 746 mmHg 92%
    20:00 +8°C° 0.1 mm 6 mps 746 mmHg 92%
    21:00 +8°C° 0.2 mm 5 mps 746 mmHg 93%
    22:00 +8°C° 0.2 mm 5 mps 745 mmHg 94%
    23:00 +9°C° 0.2 mm 5 mps 745 mmHg 95%

    3 June, Wednesday

    Time Temperature Precipitation Wind Pressure Humidity
    00:00 +10°C° 0.2 mm 4 mps 745 mmHg 96%
    01:00 +10°C° 0.2 mm 4 mps 745 mmHg 96%
    02:00 +10°C° 0.2 mm 4 mps 745 mmHg 96%
    03:00 +10°C° 0.1 mm 4 mps 745 mmHg 96%
    04:00 +10°C° 0.1 mm 4 mps 745 mmHg 96%
    05:00 +10°C° 0.1 mm 4 mps 745 mmHg 96%
    06:00 +11°C° 0 mm 4 mps 745 mmHg 91%
    07:00 +12°C° 0 mm 4 mps 745 mmHg 86%
    08:00 +13°C° 0 mm 4 mps 745 mmHg 81%
    09:00 +14°C° 0.1 mm 4 mps 745 mmHg 74%
    10:00 +15°C° 0.1 mm 5 mps 745 mmHg 67%
    11:00 +16°C° 0.1 mm 5 mps 745 mmHg 60%
    12:00 +17°C° 0.4 mm 5 mps 744 mmHg 61%
    13:00 +17°C° 0.4 mm 5 mps 744 mmHg 62%
    14:00 +17°C° 0.4 mm 5 mps 744 mmHg 63%
    15:00 +17°C° 0.4 mm 5 mps 744 mmHg 65%
    16:00 +17°C° 0.4 mm 5 mps 744 mmHg 68%
    17:00 +16°C° 0.4 mm 5 mps 744 mmHg 70%
    18:00 +15°C° 0.1 mm 4 mps 744 mmHg 75%
    19:00 +14°C° 0.1 mm 3 mps 744 mmHg 79%
    20:00 +13°C° 0.1 mm 3 mps 744 mmHg 84%
    21:00 +13°C° 0.1 mm 2 mps 744 mmHg 87%
    22:00 +12°C° 0.1 mm 2 mps 744 mmHg 90%
    23:00 +10°C° 0.1 mm 2 mps 744 mmHg 93%

    4 June, Thursday

    Time Temperature Precipitation Wind Pressure Humidity
    00:00 +10°C° 0 mm 2 mps 744 mmHg 94%
    01:00 +9°C° 0 mm 2 mps 743 mmHg 94%
    02:00 +9°C° 0 mm 2 mps 743 mmHg 95%
    03:00 +10°C° 0.1 mm 2 mps 743 mmHg 95%
    04:00 +10°C° 0.1 mm 2 mps 743 mmHg 95%
    05:00 +12°C° 0.1 mm 2 mps 742 mmHg 95%
    06:00 +11°C° 0.3 mm 3 mps 742 mmHg 93%
    07:00 +12°C° 0.3 mm 3 mps 742 mmHg 91%
    08:00 +13°C° 0.3 mm 4 mps 742 mmHg 89%
    09:00 +14°C° 0.7 mm 4 mps 742 mmHg 86%
    10:00 +15°C° 0.7 mm 4 mps 742 mmHg 83%
    11:00 +17°C° 0.7 mm 4 mps 741 mmHg 80%
    12:00 +17°C° 1.1 mm 3 mps 741 mmHg 79%
    13:00 +17°C° 1.1 mm 3 mps 741 mmHg 79%
    14:00 +17°C° 1.1 mm 3 mps 740 mmHg 78%
    15:00 +17°C° 0.7 mm 3 mps 740 mmHg 79%
    16:00 +17°C° 0.7 mm 3 mps 740 mmHg 79%
    17:00 +17°C° 0.7 mm 3 mps 739 mmHg 80%
    18:00 +16°C° 0.6 mm 3 mps 739 mmHg 84%
    19:00 +15°C° 0.6 mm 2 mps 739 mmHg 87%
    20:00 +14°C° 0.6 mm 2 mps 739 mmHg 91%
    21:00 +13°C° 0 mm 2 mps 739 mmHg 92%
    22:00 +12°C° 0 mm 2 mps 739 mmHg 93%
    23:00 +10°C° 0 mm 2 mps 739 mmHg 94%

    5 June, Friday

    Time Temperature Precipitation Wind Pressure Humidity
    00:00 +10°C° 0 mm 2 mps 738 mmHg 95%
    01:00 +9°C° 0 mm 2 mps 738 mmHg 95%
    02:00 +9°C° 0 mm 2 mps 738 mmHg 95%
    03:00 +9°C° 0 mm 2 mps 738 mmHg 96%
    04:00 +9°C° 0 mm 2 mps 738 mmHg 96%
    05:00 +9°C° 0 mm 2 mps 738 mmHg 96%
    06:00 +10°C° 0 mm 3 mps 738 mmHg 92%
    07:00 +12°C° 0 mm 3 mps 738 mmHg 88%
    08:00 +14°C° 0 mm 3 mps 738 mmHg 84%
    09:00 +16°C° 0 mm 3 mps 738 mmHg 76%
    10:00 +17°C° 0 mm 3 mps 737 mmHg 68%
    11:00 +19°C° 0 mm 3 mps 737 mmHg 61%
    12:00 +19°C° 0 mm 3 mps 737 mmHg 58%
    13:00 +20°C° 0 mm 3 mps 736 mmHg 56%
    14:00 +20°C° 0 mm 2 mps 736 mmHg 54%
    15:00 +19°C° 0.1 mm 2 mps 736 mmHg 59%
    16:00 +19°C° 0.1 mm 2 mps 736 mmHg 64%
    17:00 +18°C° 0.1 mm 2 mps 735 mmHg 68%
    18:00 +17°C° 0.4 mm 2 mps 735 mmHg 76%
    19:00 +15°C° 0.4 mm 2 mps 735 mmHg 84%
    20:00 +14°C° 0.4 mm 2 mps 735 mmHg 92%
    21:00 +14°C° 0.3 mm 2 mps 735 mmHg 93%
    22:00 +13°C° 0.3 mm 2 mps 735 mmHg 93%
    23:00 +13°C° 0.3 mm 2 mps 736 mmHg 94%
    Show more